Regional Weather Roundup
Issued by NWS

Home | Current Version | Previous Version | Graphics & Text | Print | Product List | Glossary On
Versions: 1 2 3 4 5 6 7 8 9 10 11 12 13 14 15 16 17 18 19 20 21 22 23 24 25 26 27 28 29 30 31 32 33 34 35 36 37 38 39 40 41 42 43 44 45 46 47 48 49 50
000
ASUS45 KBOI 281110
RWRID

IDAHO REGIONAL WEATHER ROUNDUP
NATIONAL WEATHER SERVICE BOISE ID
500 AM MDT THU APR 28 2016

NOTE: "FAIR" INDICATES FEW OR NO CLOUDS BELOW 12000 FEET
WITH NO SIGNIFICANT WEATHER AND/OR OBSTRUCTIONS TO VISIBILITY

IDZ012-014-281200-
SOUTHWEST IDAHO


CITY           SKY/WX    TMP DP  RH WIND       PRES   REMARKS
BOISE          CLEAR     44  39  82 CALM      29.82R
CALDWELL       CLEAR     48  38  68 W10       29.82S
MOUNTAIN HOME  CLOUDY    44  40  84 NW9       29.81S
$$

IDZ016-017-281200-
SOUTHCENTRAL IDAHO


CITY           SKY/WX    TMP DP  RH WIND       PRES   REMARKS
BURLEY         CLEAR     39  32  76 E6        29.78R WCI  35
JEROME         CLOUDY    43  38  82 E7        29.79S
TWIN FALLS     PTCLDY    38  34  85 SW3       29.79S
$$

IDZ019>023-281200-
SOUTHEAST IDAHO


CITY           SKY/WX    TMP DP  RH WIND       PRES   REMARKS
IDAHO FALLS    CLEAR     30  24  78 N5        29.82S WCI  25
POCATELLO      CLEAR     37  29  72 NE6       29.80S WCI  32
REXBURG        CLEAR     33  25  72 NE5       29.82S WCI  29
$$

IDZ006-010-011-018-031-032-281200-
CENTRAL IDAHO MOUNTAINS


CITY           SKY/WX    TMP DP  RH WIND       PRES   REMARKS
MCCALL         PTCLDY    36  33  89 CALM      29.85S
HAILEY         CLEAR     37  34  87 NW10      29.82S WCI  30
STANLEY          N/A     34  32  92 CALM      29.88R
SALMON         CLOUDY    43  28  56 CALM      29.90S
CHALLIS        CLEAR     38  26  62 NW9       29.87R WCI  31
$$

IDZ002-004-006-007-026-281200-
NORTHERN IDAHO


CITY           SKY/WX    TMP DP  RH WIND       PRES   REMARKS
LEWISTON       PTCLDY    52  39  61 W7        29.94R
LOWELL           N/A     48  41  76 VRB3      29.96R
COEUR D`ALENE  PTCLDY    43  37  81 N13       29.94S
MULLAN PASS    PTCLDY    31  27  85 VRB5      29.95S WCI  26
$$



USA.gov is the U.S. government's official web portal to all federal, state and local government web resources and services.